Date,TemperatureHighF,TemperatureAvgF,TemperatureLowF,DewpointHighF,DewpointAvgF,DewpointLowF,HumidityHigh,HumidityAvg,HumidityLow,PressureMaxIn,PressureMinIn,WindSpeedMaxMPH,WindSpeedAvgMPH,GustSpeedMaxMPH,PrecipitationSumIn
2013-1-1,42.3,41.7,40.9,39.6,39.0,38.2,90,90,89,30.23,30.22,0,0,0,0.00
2013-1-10,59.5,53.5,44.6,50.6,40.4,29.6,89,63,33,30.10,29.91,12,4,0,0.01
2013-1-11,56.9,49.7,40.1,34.9,28.3,24.1,62,44,32,30.18,30.05,9,4,0,0.00
2013-1-12,56.2,45.4,34.0,35.6,29.0,24.4,80,54,30,30.16,30.06,5,1,0,0.00
2013-1-13,44.1,34.6,31.4,32.4,30.6,28.0,88,85,59,30.16,30.09,0,0,0,0.00
2013-1-14,56.4,47.1,36.8,33.9,18.9,7.5,70,35,16,30.33,30.12,5,2,0,0.00
2013-1-15,62.1,44.9,30.6,37.6,29.3,21.3,86,60,23,30.45,30.31,6,1,0,0.00
2013-1-16,70.8,49.1,34.4,41.1,35.6,31.2,89,66,28,30.35,30.15,4,0,6,0.00
2013-1-17,80.0,54.5,38.1,40.8,34.4,23.0,85,56,13,30.15,30.03,7,1,14,0.00
2013-1-18,81.0,58.3,39.8,39.9,34.2,27.6,79,46,15,30.12,30.02,3,0,7,0.00
2013-1-19,79.0,59.4,43.1,39.6,34.8,26.9,83,46,16,30.17,30.05,3,0,6,0.00
2013-1-20,79.1,52.2,42.1,36.7,31.9,26.0,75,51,15,30.13,30.02,2,0,5,0.00
2013-1-21,81.5,57.0,39.5,37.5,32.9,26.7,79,49,14,30.08,30.00,4,1,0,0.00
2013-1-22,81.3,54.4,37.4,41.3,34.7,19.4,81,55,10,30.08,29.99,3,0,4,0.00
2013-1-23,73.7,59.9,48.6,53.8,42.6,37.9,84,56,30,30.13,30.00,2,0,4,0.01
2013-1-24,68.2,60.3,54.8,57.1,54.4,50.6,89,81,66,30.19,30.08,3,1,5,0.61
2013-1-25,67.4,61.8,59.3,60.5,57.3,55.7,89,85,75,30.10,29.94,3,1,5,0.12
2013-1-26,66.6,59.9,55.6,62.0,56.8,52.7,92,89,83,29.99,29.88,4,1,6,0.03
2013-1-27,61.5,54.6,50.0,53.6,47.6,42.2,90,78,66,30.03,29.97,4,1,6,0.05
2013-1-28,60.7,51.8,39.5,43.1,36.8,32.3,84,58,40,30.17,30.07,9,3,15,0.00
2013-1-29,60.2,50.6,39.6,42.3,39.3,33.7,86,66,49,30.23,30.16,3,0,3,0.00